Location: Unspecified
(0.0000°N, 0.0000°E)
Time: 13:35:03
(UTC+01:00)

Cosmos 1933 - Visible Passes

Search period start: 01 November 2014 00:00
Search period end: 11 November 2014 00:00
Orbit: 556 x 571 km, 82.5° (Epoch: 31 October)

Date Brightness Start Highest point End Pass type
(mag) Time Alt. Az. Time Alt. Az. Time Alt. Az.
01 Nov 6.5 06:00:13 10° NE 06:02:47 16° E 06:05:21 10° SE visible
01 Nov 6.6 19:37:06 10° WSW 19:39:10 14° W 19:41:15 10° NW visible
02 Nov 6.3 05:59:37 10° NE 06:02:43 21° E 06:05:49 10° SE visible
02 Nov 7.0 19:38:27 10° W 19:39:06 10° W 19:39:45 10° WNW visible
03 Nov 5.8 05:59:10 10° NNE 06:02:39 27° E 06:06:08 10° SE visible
04 Nov 5.2 05:58:49 10° NNE 06:02:34 35° E 06:06:19 10° SSE visible
05 Nov 4.6 05:58:33 10° NNE 06:02:29 46° E 06:06:25 10° SSE visible
06 Nov 3.9 05:58:21 10° N 06:02:24 63° E 06:06:27 10° SSE visible
07 Nov 3.4 05:58:13 10° N 06:02:18 84° E 06:06:24 10° S visible
08 Nov 3.3 05:58:08 10° N 06:02:12 73° W 06:06:17 10° S visible
09 Nov 3.5 05:58:07 10° NNW 06:02:06 54° W 06:06:06 10° S visible
10 Nov 3.8 05:58:09 10° NNW 06:01:59 40° W 06:05:50 10° SSW visible
